Skip Page Navigation
NASA JPL Caltech
NASA Logo - Jet Propulsion Laboratory + View the NASA Portal
+ Center for Near-Earth Object Studies
JPL Home Earth Solar System Stars & Galaxies Technology
JPL Solar System Dynamics
BODIES ORBITS EPHEMERIDES TOOLS PHYSICAL DATA DISCOVERY FAQ SITE MAP
IMPORTANT: The SSD Announcement email list is now available. Major changes are coming in the near future, including possible hostname and/or URL changes. To be notified of such changes, subscribe to this email list.

Please visit this page for more details.


JPL Small-Body Database Browser
Search: [ help ]  
469227 (2016 HV10)
Classification: Main-belt Asteroid          SPK-ID: 2469227
Ephemeris | Orbit Diagram | Orbital Elements | Mission Design | Physical Parameters | Discovery Circumstances | Close-Approach Data ]

[ show orbit diagram ]
Orbital Elements at Epoch 2458600.5 (2019-Apr-27.0) TDB
Reference: JPL 9 (heliocentric ecliptic J2000)
 Element Value Uncertainty (1-sigma)   Units 
e .1677560379307718 1.7317e-07  
a 3.124213546058665 1.0464e-07 au
q 2.600107859922216 5.3469e-07 au
i 20.57053541042434 1.4452e-05 deg
node 64.12171308408 2.5433e-05 deg
peri 118.1641072077011 0.00014617 deg
M 220.6262305719181 0.00011079 deg
tp 2459381.386722675454
(2021-Jun-15.88672268)
0.00061936 TDB
period 2017.01669773826
5.52
0.00010133
2.774e-07
d
yr
n .1784814178304417 8.9667e-09 deg/d
Q 3.648319232195113 1.2219e-07 au
  Orbit Determination Parameters
   # obs. used (total)      76  
   data-arc span      4547 days (12.45 yr)  
   first obs. used      2004-01-16  
   last obs. used      2016-06-28  
   planetary ephem.      DE431  
   SB-pert. ephem.      SB431-N16  
   condition code      0  
   norm. resid. RMS      .59409  
   source      ORB  
   producer      Otto Matic  
   solution date      2018-Oct-04 12:31:08  

Additional Information
 Earth MOID = 1.66423 au 
 Jupiter MOID = 1.56972 au 
 T_jup = 3.096 
[ show covariance matrix ]

Ephemeris | Orbit Diagram | Orbital Elements | Mission Design | Physical Parameters | Discovery Circumstances | Close-Approach Data ]

Physical Parameter Table
Parameter Symbol Value Units Sigma Reference Notes
absolute magnitude H 16.3   n/a MPO413563  
diameter diameter 3.276 km 0.098 urn:nasa:pds:neowise_diameters_albedos::2.0[mainbelt] (http://adsabs.harvard.edu/abs/2011ApJ...741...68M)  
geometric albedo albedo 0.104   0.018 urn:nasa:pds:neowise_diameters_albedos::2.0[mainbelt] (http://adsabs.harvard.edu/abs/2011ApJ...741...68M)  

469227 (2016 HV10)          Discovered 2008-Nov-03 by Spacewatch at Kitt Peak
Reference: Last Updated: 2016-06-21

[ show close-approach data ]
Alternate Designations
 2016 HV10 = 2008 WV109 = 2010 KN57 
Ephemeris | Orbit Diagram | Orbital Elements | Mission Design | Physical Parameters | Discovery Circumstances | Close-Approach Data ]
ABOUT SSD CREDITS/AWARDS PRIVACY/COPYRIGHT GLOSSARY LINKS
FirstGov
(server date/time)  
NASA Home Page
Site Manager:   Ryan S. Park
Webmaster  Alan B. Chamberlin